Regional Weather Roundup
Issued by NWS

Home | Current Version | Previous Version | Graphics & Text | Print | Product List | Glossary Off
Versions: 1 2 3 4 5 6 7 8 9 10 11 12 13 14 15 16 17 18 19 20 21 22 23 24 25 26 27 28 29 30 31 32 33 34 35 36 37 38 39 40 41 42 43 44 45 46 47 48 49 50

704
ASUS43 KMKX 281700
RWRWI

WISCONSIN REGIONAL WEATHER ROUNDUP
NATIONAL WEATHER SERVICE MILWAUKEE/SULLIVAN WI
1200 PM CDT SUN AUG 28 2016

NOTE: "FAIR" INDICATES FEW OR NO CLOUDS BELOW 12,000 FEET WITH NO
SIGNIFICANT WEATHER AND/OR OBSTRUCTIONS TO VISIBILITY.

WIZ001-002-006>008-014>016-023>028-281800-
NORTHWEST WISCONSIN

CITY           SKY/WX    TMP DP  RH WIND       PRES   REMARKS
SUPERIOR ARPT  CLOUDY    65  62  89 SW5       30.19R
ASHLAND        CLOUDY    67  62  84 VRB5      30.20R
HAYWARD        CLOUDY    68  61  78 VRB5      30.20S
SIREN          PTSUNNY   68  64  88 SE5       30.18R
CUMBERLAND       N/A     63  63 100 SE6       30.20S
RICE LAKE      CLOUDY    64  63  96 SE9       30.21F
CHETEK         NOT AVBL
LADYSMITH      CLOUDY    70  63  78 SE3       30.24R
EAU CLAIRE     CLOUDY    71  66  84 SE6       30.20S
MENOMONIE      CLOUDY    70  67  89 E7        30.20S
NEW RICHMOND   CLOUDY    68  68 100 SE9       30.17F
OSCEOLA        CLOUDY    67  67 100 E3        30.20R
$$

WIZ003>005-009-010-017-018-281800-
NORTH CENTRAL WISCONSIN

CITY           SKY/WX    TMP DP  RH WIND       PRES   REMARKS
MANITOWISH WTR NOT AVBL
ARBOR VITAE    SUNNY     72  63  72 SE3       30.22F
WOODRUFF       SUNNY     72  63  72 SE3       30.22F
RHINELANDER    SUNNY     71  60  68 CALM      30.23F
EAGLE RIVER    SUNNY     69  57  65 E5        30.22S
LAND O LAKES   SUNNY     70  57  63 CALM      30.23F
PHILLIPS       MOSUNNY   67  61  79 CALM      30.22S
TOMAHAWK       MOSUNNY   69  59  70 CALM      30.24R
MEDFORD        CLOUDY    68  64  87 SW3       30.23R
MERRILL        CLOUDY    72  62  71 NW3       30.24R
$$

WIZ029-030-035-036-043>047-281800-
CENTRAL WISCONSIN

CITY           SKY/WX    TMP DP  RH WIND       PRES   REMARKS
WAUSAU         CLOUDY    71  60  68 S3        30.22S
MOSINEE        PTSUNNY   70  63  78 S3        30.25S
MARSHFIELD     CLOUDY    73  63  70 SW6       30.23S
STEVENS POINT  PTSUNNY   69  61  75 NW3       30.25S
WAUPACA        PTSUNNY   76  63  64 CALM      30.23S
WAUTOMA        CLOUDY    74  65  73 VRB3      30.23F
WISC RAPIDS    PTSUNNY   75  64  68 S7        30.24S
CAMP DOUGLAS   PTSUNNY   72  68  88 SE8       30.22F
$$

WIZ011>013-019>022-031-037>040-048>050-281800-
NORTHEAST WISCONSIN

CITY           SKY/WX    TMP DP  RH WIND       PRES   REMARKS
ANTIGO         MOSUNNY   71  61  70 CALM      30.24S
SHAWANO        CLOUDY    74  61  63 SE3       30.22S
OCONTO         NOT AVBL
STURGEON BAY   MOSUNNY   72  60  66 VRB5      30.22S
GREEN BAY      SUNNY     74  64  71 CALM      30.22S
MANITOWOC      NOT AVBL
APPLETON       PTSUNNY   73  61  64 VRB3      30.22S
CLINTONVILLE   CLOUDY    72  57  60 CALM      30.23S
OSHKOSH        CLOUDY    75  63  66 VRB5      30.23S
$$

WIZ032>034-041-042-053>061-281800-
SOUTHWEST WISCONSIN

CITY           SKY/WX    TMP DP  RH WIND       PRES   REMARKS
LA CROSSE      CLOUDY    73  68  84 CALM      30.21R
SPARTA         CLOUDY    73  66  80 SE6       30.22S
VIROQUA        CLOUDY    72  67  85 E6        30.23S
BOSCOBEL       PTSUNNY   77  69  76 VRB6      30.20F
PRAIRIE DU CHI SUNNY     78  70  74 SE6       30.18F HX  81
PLATTEVILLE    MOSUNNY   79  73  83 SE3       30.21F HX  82
$$

WIZ056-057-062-063-064-067-068-281800-
SOUTH CENTRAL WISCONSIN

CITY           SKY/WX    TMP DP  RH WIND       PRES   REMARKS
REEDSBURG      NOT AVBL
BARABOO/DELLS  CLOUDY    67  65  95 CALM      30.24S
LONE ROCK      CLOUDY    71  67  87 E8        30.22S
MINERAL POINT  MOSUNNY   79  70  73 CALM      30.22S HX  81
MADISON        PTSUNNY   71  66  84 E8        30.22F
MIDDLETON      CLOUDY    69  69 100 E5        30.23F
WATERTOWN      CLOUDY    67  67 100 E3        30.24S
MONROE         MOSUNNY   77  68  73 SE6       30.22S
JANESVILLE     PTSUNNY   81  68  65 VRB5      30.21S HX  83
$$

WIZ051-052-058>065-066-070>072-281800-
SOUTHEAST WISCONSIN

CITY           SKY/WX    TMP DP  RH WIND       PRES   REMARKS
MILWAUKEE      CLOUDY    72  65  78 NE7       30.23S
WAUKESHA       MOSUNNY   72  66  83 NE6       30.25S
MILWAUKEE/TIMM PTSUNNY   72  63  73 NE3       30.25S
RACINE         CLOUDY    70  65  84 NE6       30.25S
BURLINGTON     SUNNY     77  65  66 E3        30.22S
KENOSHA        SUNNY     76  68  76 E9        30.23S
FOND DU LAC    PTSUNNY   75  64  68 CALM      30.23S
SHEBOYGAN      MOSUNNY   75  63  66 S5        30.22S
WEST BEND      MOSUNNY   72  64  78 CALM      30.23F
JUNEAU         CLOUDY    66  65  95 CALM      30.25S
$$

LSZ147-162-281800-
LAKE SUPERIOR

STATION/POSITION TIME  TEMP    WIND        PRES    WAVE
                       AIR SEA DIR/SP/G            HT/PER
                 (UTC) (F)     (DEG/KT/KT) (MB)    (FT/S)
W MID LAKE BUOY  1550   66 67  230/ 10/ 12 1021.8R   1
DEVILS ISLAND    1600   63     210/  7/  9 1022.3R
PORT WING        1640   65     300/  4/  5 1022.4R
SAXON HARBOR     1640   69      30/  2/  2 1022.0S
$$

LMZ867-665-643>646-281800-
LAKE MICHIGAN

STATION/POSITION TIME  TEMP    WIND        PRES    WAVE
                       AIR SEA DIR/SP/G            HT/PER
                 (UTC) (F)     (DEG/KT/KT) (MB)    (FT/S)
CHAMBERS ISLAND  1600   72     200/  4/  6 1022.7R
S GREEN BAY BUOY 1500   68 71  250/  6/  8 1022.2R
N MID LAKE BUOY  1550   68 71  250/ 10/ 12 1022.0R   1/ 3
NORTHPORT PIER   1600   72     310/  7/ 11 1022.4R
SISTER BAY       1452   74     290/ 10/ 11   N/A
KEWAUNEE LAKESHO 1600   64     150/  2/  4 1022.9R
SHEBOYGAN LAKESH 1600   64     170/ 10/ 10 1023.1R
PORT WASHINGTON  1600   71     190/  6/  8 1024.4S
ATWATER BUOY     1600   64     300/  6/  6   N/A
MILWAUKEE LAKESH 1610   66      40/  4/  5   N/A
S MID LAKE BUOY  1550   73 75   10/ 10/ 12 1022.7R   1
KENOSHA   LAKESH 1600   65      30/ 13/ 16 1023.0F
$$

TC  - TEMPERATURE IN CELSIUS
VSB - VISIBILITY IN STATUTE MILES
WCI - WIND CHILL INDEX
HX  - HEAT INDEX





USA.gov is the U.S. government's official web portal to all federal, state and local government web resources and services.